Weather History for KHKS - January, 2014

Change the Weather History Date:

Saturday, January 11, 2014

  Actual Average (KJAN) Record (KJAN)
Temperature  
Mean Temperature 54 °F 45 °F  
Max Temperature 66 °F 56 °F 80 °F (1916)
Min Temperature 42 °F 35 °F 1 °F (1962)
Degree Days  
Heating Degree Days 11 20  
Month to date heating degree days 220  
Since 1 July heating degree days 1170  
Cooling Degree Days 0 0  
Month to date cooling degree days 0  
Year to date cooling degree days 0  
Growing Degree Days 4 (Base 50)    
Moisture  
Dew Point 49 °F    
Average Humidity 69    
Maximum Humidity 94    
Minimum Humidity 27    
Precipitation  
Precipitation 0.36 in 0.15 in 2.83 in (1980)
Month to date precipitation 1.62  
Year to date precipitation 1.62  
Sea Level Pressure  
Sea Level Pressure 29.86 in    
Wind  
Wind Speed 13 mph (West)    
Max Wind Speed 26 mph    
Max Gust Speed 36 mph    
Visibility 9 miles    
Events Rain    
T = Trace of Precipitation, MM = Missing Value Source: NWS Daily Summary

Daily Weather History Graph

Daily Weather History Graph

Search for Another Location

Airport or City:

Trip Planner

Search our weather history database for the weather conditions in past years. The results will help you decide how hot, cold, wet, or windy it might be!

Date:

Astronomy

Jan. 11, 2014 Rise Set
Actual Time 7:02 AM CST 5:15 PM CST
Civil Twilight 6:36 AM CST 5:41 PM CST
Nautical Twilight 6:06 AM CST 6:11 PM CST
Astronomical Twilight 5:36 AM CST 6:41 PM CST
Moon 1:56 PM CST (1/11) 3:10 AM CST (1/11)
Length of Visible Light 11h 05m
Length of Day
10h 12m
Waxing Gibbous, 83% of the Moon is Illuminated
Jan 11
Waxing Gibbous
Jan 15
Full
Jan 23
Last Quarter
Jan 30
New
Feb 6
First Quarter

Hourly Weather History & Observations

Time (CST) Temp. Dew Point Humidity Pressure Visibility Wind Dir Wind Speed Gust Speed Precip Events Conditions
12:01 AM 66.2 °F 62.6 °F 88% 29.77 in 3.0 mi South 12.7 mph 23.0 mph 0.01 in Rain Light Rain
12:37 AM 66.2 °F 62.6 °F 88% 29.74 in 10.0 mi South 12.7 mph 21.9 mph 0.01 in   Overcast
12:44 AM 66.2 °F 62.6 °F 88% 29.74 in 9.0 mi SSW 13.8 mph - 0.01 in Rain Light Rain
12:53 AM 66.9 °F 63.0 °F 87% 29.72 in 10.0 mi South 11.5 mph - 0.01 in Rain Light Rain
1:22 AM 66.2 °F 64.4 °F 94% 29.78 in 1.8 mi West 16.1 mph 33.4 mph 0.12 in Rain Heavy Rain
1:30 AM 66.2 °F 64.4 °F 94% 29.78 in 2.0 mi West 16.1 mph 24.2 mph 0.14 in Rain Rain
1:37 AM 66.2 °F 64.4 °F 94% 29.77 in 10.0 mi WSW 15.0 mph 28.8 mph 0.14 in Rain Light Rain
1:53 AM 66.0 °F 63.0 °F 90% 29.75 in 4.0 mi WSW 12.7 mph 23.0 mph 0.19 in Rain Rain
1:56 AM 66.2 °F 64.4 °F 94% 29.78 in 2.5 mi West 13.8 mph 23.0 mph 0.03 in Rain Heavy Rain
2:13 AM 66.2 °F 62.6 °F 88% 29.77 in 8.0 mi West 19.6 mph 25.3 mph 0.09 in Rain Light Rain
2:36 AM 66.2 °F 62.6 °F 88% 29.78 in 6.0 mi West 15.0 mph 26.5 mph 0.15 in Rain Rain
2:51 AM 64.4 °F 62.6 °F 94% 29.79 in 10.0 mi West 15.0 mph 23.0 mph 0.15 in Rain Light Rain
2:53 AM 64.9 °F 62.1 °F 90% 29.77 in 10.0 mi West 13.8 mph 23.0 mph 0.15 in Rain Light Rain
3:10 AM 64.4 °F 62.6 °F 94% 29.78 in 10.0 mi West 17.3 mph 27.6 mph 0.01 in Rain Light Rain
3:30 AM 64.4 °F 62.6 °F 94% 29.79 in 10.0 mi West 16.1 mph 23.0 mph 0.01 in   Overcast
3:53 AM 64.9 °F 61.0 °F 87% 29.78 in 10.0 mi West 13.8 mph 23.0 mph 0.01 in   Mostly Cloudy
4:53 AM 64.0 °F 60.1 °F 87% 29.79 in 10.0 mi West 10.4 mph 19.6 mph N/A   Overcast
5:39 AM 64.4 °F 60.8 °F 88% 29.81 in 10.0 mi West 16.1 mph - N/A   Overcast
5:51 AM 64.4 °F 60.8 °F 88% 29.82 in 10.0 mi West 13.8 mph - N/A   Overcast
5:53 AM 64.0 °F 60.1 °F 87% 29.80 in 10.0 mi West 16.1 mph 21.9 mph N/A   Overcast
6:31 AM 62.6 °F 55.4 °F 77% 29.85 in 10.0 mi NW 9.2 mph 25.3 mph N/A   Scattered Clouds
6:53 AM 60.1 °F 50.0 °F 69% 29.84 in 10.0 mi NNW 13.8 mph 21.9 mph N/A   Scattered Clouds
7:53 AM 57.0 °F 39.0 °F 51% 29.88 in 10.0 mi NW 4.6 mph - N/A   Clear
8:53 AM 60.1 °F 37.0 °F 42% 29.91 in 10.0 mi NW 4.6 mph - N/A   Clear
9:53 AM 62.1 °F 33.1 °F 34% 29.94 in 10.0 mi WNW 8.1 mph - N/A   Clear
10:53 AM 62.1 °F 33.1 °F 34% 29.94 in 10.0 mi West 15.0 mph - N/A   Overcast
11:53 AM 64.0 °F 34.0 °F 33% 29.92 in 10.0 mi West 15.0 mph 20.7 mph N/A   Mostly Cloudy
12:53 PM 64.9 °F 30.0 °F 27% 29.91 in 10.0 mi West 26.5 mph 34.5 mph N/A   Clear
1:53 PM 64.0 °F 33.1 °F 31% 29.90 in 10.0 mi WNW 16.1 mph 35.7 mph N/A   Clear
2:53 PM 63.0 °F 35.1 °F 35% 29.93 in 10.0 mi WNW 17.3 mph 28.8 mph N/A   Clear
3:53 PM 61.0 °F 33.1 °F 35% 29.95 in 10.0 mi WNW 17.3 mph 26.5 mph N/A   Clear
4:53 PM 59.0 °F 32.0 °F 36% 29.97 in 10.0 mi WNW 10.4 mph - N/A   Clear
5:53 PM 55.0 °F 32.0 °F 42% 29.98 in 10.0 mi WNW 4.6 mph - N/A   Clear
6:53 PM 54.0 °F 32.0 °F 43% 30.01 in 10.0 mi West 4.6 mph - N/A   Clear
7:53 PM 50.0 °F 33.1 °F 52% 30.03 in 10.0 mi Calm Calm - N/A   Clear
8:53 PM 48.0 °F 33.1 °F 56% 30.04 in 10.0 mi Calm Calm - N/A   Clear
9:53 PM 46.0 °F 33.1 °F 61% 30.06 in 10.0 mi Calm Calm - N/A   Clear
10:53 PM 42.1 °F 34.0 °F 73% 30.06 in 10.0 mi Calm Calm - N/A   Clear
11:53 PM 42.1 °F 34.0 °F 73% 30.06 in 10.0 mi Calm Calm - N/A   Clear